Regional Weather Roundup
Issued by NWS

Home | Current Version | Previous Version | Text Only | Print | Product List | Glossary Off
Versions: 1 2 3 4 5 6 7 8 9 10 11 12 13 14 15 16 17 18 19 20 21 22 23 24 25 26 27 28 29 30 31 32 33 34 35 36 37 38 39 40 41 42 43 44 45 46 47 48 49 50

000
ASUS45 KBOI 302110
RWRID
WEATHER ROUNDUP FOR IDAHO
NATIONAL WEATHER SERVICE BOISE ID
200 PM MST FRI JAN 30 2015

NOTE: "FAIR" INDICATES FEW OR NO CLOUDS BELOW 12000 FEET
WITH NO SIGNIFICANT WEATHER AND/OR OBSTRUCTIONS TO VISIBILITY

IDZ012-014-302200-
SOUTHWEST IDAHO


CITY           SKY/WX    TMP DP  RH WIND       PRES   REMARKS
BOISE          SUNNY     44  34  67 NW14      30.21F
CALDWELL       PTSUNNY   45  30  57 N7        30.25F
MOUNTAIN HOME  SUNNY     45  35  69 NW16      30.19F
$$

IDZ016-017-302200-
SOUTHCENTRAL IDAHO


CITY           SKY/WX    TMP DP  RH WIND       PRES   REMARKS
BURLEY         CLOUDY    39  31  72 W8        30.15F WCI  33
JEROME         FOG       33  32  96 SW7       30.18F VSB 1/2 WCI  27
TWIN FALLS     CLOUDY    38  32  79 W8        30.17F WCI  32
$$

IDZ019>023-302200-
SOUTHEAST IDAHO


CITY           SKY/WX    TMP DP  RH WIND       PRES   REMARKS
IDAHO FALLS    PTSUNNY   37  25  61 N13       30.13F WCI  29
POCATELLO      MOSUNNY   39  31  72 CALM      30.14F
REXBURG        CLOUDY    34  24  67 NE6       30.13F WCI  29
$$

IDZ006-010-011-018-031-032-302200-
CENTRAL IDAHO MOUNTAINS


CITY           SKY/WX    TMP DP  RH WIND       PRES   REMARKS
MCCALL         SUNNY     28  24  85 CALM      30.17F
HAILEY         PTSUNNY   36  27  69 SE10      30.14F WCI  28
STANLEY          N/A     19  12  74 CALM      30.20F
SALMON         CLOUDY    30  21  69 N6        30.30F WCI  24
CHALLIS        CLOUDY    27  19  72 NE3       30.25F
$$

IDZ002-004-006-007-026-302200-
NORTHERN IDAHO


CITY           SKY/WX    TMP DP  RH WIND       PRES   REMARKS
LEWISTON       CLOUDY    38  35  89 CALM      30.36F
LOWELL           N/A     40  30  67 S10G20    30.32F WCI  33
COEUR D`ALENE  CLOUDY    34  28  80 CALM      30.31F
MULLAN PASS    SUNNY     34  19  54 NW3       30.20F
$$



USA.gov is the U.S. government's official web portal to all federal, state and local government web resources and services.